STARLINK-1278, 45408

Orbit data source: Space-Track

STARLINK-1278, 45408 is a payload satellite owned by SpaceX/Seattle (US) in LEO that was launched on Wed, 18 Mar 2020 UTC via an FALCON 9 launch vehicle from the Air Force Eastern Test Range (AFETR). Payload-class satellites include a variety of spacecraft equipped with specific instruments for various scientific and technological missions. These include communications satellites like Starlink; space stations such as the ISS; scientific satellites like the Hubble; Earth observation satellites from companies like Planet Labs, Umbra, and HawkEye 360; GPS; miniature CubeSats for education and research; and military/defense satellites.

Loading next visibility...
Identifier
45408, 2020-019BA
Orbit
LEO
Country
Flag of USUS
Related business
Manufacturer
SpaceX/Seattle
Mission
Partially operational Commercial Communications
Bus & Motor
STARLINK, Unknown motor
Mass
260 kg wet, ~248 kg dry
Launch date (UTC)
2020-03-18 (6 years ago)
Launch vehicle
FALCON 9
Launch site
Air Force Eastern Test Range (AFETR)
Object type
Payload
Rocket body
Debris
Shape & HBR
Box + 1 Pan, 10.1 m
Radar Cross Section
13.562 m², Large (>1 m²)

Expand to show TLE details & history
Last TLE update: 14 hours ago

TLE from 14 hours ago
0 STARLINK-1278
1 45408U 20019BA  25342.94108758  .00096268  00000-0  24605-2 0  9991
2 45408  53.0525 203.8212 0009591 116.1603 244.0387 15.38643258315915
Epoch: 2025-12-08T22:35Z
TLE epoch observation values (Epoch: 2025-12-08T22:35:09.966Z)
Latitude
-0.00008°
Longitude
147.09671°
Altitude
453.884 km
Speed
7.64 km/s
True Right ascension
13h 35m 17s
True Declination
0° 00' 00"
Sunlit
Object was in daylight at epoch
Visualization orbit readout
Latitude
Unknown
Longitude
Unknown
Altitude
Unknown
Speed
Unknown
Apparent Right ascension
Unknown
Apparent Declination
Unknown
Sunlit
N/A
Visualization observer readout
Local Sidereal Time
11:07:48
Azimuth
Unknown
Elevation
Unknown
Doppler factor
Unknown
Orbital elements
Apogee altitude
456.944 km
Perigee altitude
443.846 km
Semi-major axis
6,828.532 km
Eccentricity
0.00096
Inclination
53.0525°
RAAN
203.8212°
Arg. of periapsis
116.1603°
True anomaly
243.93994°
Mean anomaly
244.0387°
Eccentric anomaly
243.98931°
Mean motion
3.84638 °/min
Orbital period
93.59 mins
BSTAR
0.0024605
Loading maneuver chart data...
Computing Atmospheric mass density...
Loading historical data...
Loading historical data...
Loading historical data...
Loading historical data...
Loading historical data...
Loading historical data...
Loading historical data...

Documentation

Showing up to 5 results
|